Location: Camp at the Woods
(43.2055°N, 93.0905°W)
Time: 02:00:45
(UTC+00:00)

Cosmos 2227 Rocket - Pass Details

Date: 29 May 2025
Orbit: 837 x 844 km, 71.0° (Epoch: 12 June)

Event Time Altitude Azimuth Distance (km) Brightness Sun altitude
Exits shadow 07:04:22 60° 207° (SSW) 960 2.1 -23.9°
Maximum altitude 07:05:29 88° 294° (WNW) 845 2.1 -23.9°
Drops below altitude 10° 07:11:09 10° 24° (NNE) 2,464 5.7 -23.6°
Sets 07:13:37 0° 25° (NNE) 3,404 6.7 -23.5°
